[[{"header":{"parameterUnit":"m.s-1","parameterCategory":1,"la1":30.2991,"la2":30.254,"lo1":-89.0895,"lo2":-89.0444,"dx":0.0017,"dy":0.0017,"nx":28,"ny":28,"refTime":"2022-12-18T15:00:00:Z","depth":0,"parameterNumber":2,"parameterNumberName":"U-component_of_WINDS"},"data":[0,0,0,0,0,0,0,0,0,0,0,0,0,0,0,0,0,0,0,0,0,0,0,0,0,0,0,0,0,0,0,0,0,0,0,0,0,0,0,0,0,0,0,0,0,0,0,0,0,0,0,0,0,0,0,0,0,0,-5.6603,-5.6604,0,-5.6711,-5.6712,-5.6714,-5.6549,-5.6543,-5.6538,-5.6532,-5.6648,-5.6656,-5.6665,0,0,0,0,0,0,0,0,0,0,0,0,0,-5.6255,-5.6263,-5.6602,-5.6604,-5.6605,-5.6711,-5.6712,-5.6714,-5.655,-5.6543,-5.6536,-5.653,-5.6645,-5.6655,-5.6665,0,0,0,0,0,0,0,0,0,0,0,0,0,-5.639,-5.6265,-5.6602,-5.6536,-5.6531,-5.6711,-5.6712,-5.6714,-5.6552,-5.6543,-5.6534,-5.6526,-5.6642,-5.6654,-5.6667,-5.6917,0,0,-5.6705,-5.6711,0,0,0,0,0,0,0,0,-5.6382,-5.6403,-5.6544,-5.6541,-5.6536,-5.6608,-5.6632,-5.6783,-5.6554,-5.6544,-5.6532,-5.6522,-5.6642,-5.6654,-5.6693,-5.6923,-5.6928,-5.6707,-5.6714,-5.672,-5.6723,0,0,0,0,0,0,0,-5.6373,-5.6397,-5.6645,-5.6547,-5.6542,-5.6502,-5.6511,-5.666,-5.664,-5.6544,-5.6533,-5.6547,-5.6638,-5.6682,-5.6695,-5.6929,-5.6706,-5.6717,-5.6725,-5.673,-5.7367,-5.7376,0,0,0,0,0,0,-5.6371,-5.639,-5.6642,-5.6649,-5.6436,-5.6515,-5.6526,-5.6593,-5.6638,-5.6636,-5.6555,-5.6539,-5.6664,-5.668,-5.6698,-5.6993,-5.672,-5.6731,-5.6739,-5.7358,-5.7369,-5.7379,0,0,0,0,0,0,-5.6365,-5.6395,-5.6638,-5.6516,-5.6544,-5.653,-5.6608,-5.66,-5.6643,-5.6646,-5.6642,-5.6603,-5.6658,-5.6681,-5.6863,-5.6995,-5.6737,-5.6749,-5.7347,-5.7361,-5.7374,-5.7585,0,0,0,0,0,0,-5.6355,-5.6394,-5.6489,-5.652,-5.6551,-5.6801,-5.6616,-5.6608,-5.6665,-5.6646,-5.669,-5.6689,-5.6653,-5.6845,-5.6876,-5.7007,-5.6758,-5.7335,-5.7353,-5.737,-5.7567,-5.7605,-5.7638,0,0,0,0,0,-5.6343,-5.6545,-5.6494,-5.6526,-5.6669,-5.6809,-5.6827,-5.678,-5.6677,-5.6772,-5.6773,-5.6688,-5.6975,-5.6865,-5.6898,-5.7036,-5.7327,-5.7348,-5.7369,-5.7551,-5.7597,-5.7637,0,0,0,0,0,0,-5.6532,-5.6548,-5.6492,-5.6709,-5.6759,-5.678,-5.6899,-5.6831,-5.6912,-5.6891,-5.6831,-5.6842,-5.7038,-5.7055,-5.6932,-5.7279,-5.7134,-5.7163,-5.7261,-5.7305,-5.734,-5.7332,-5.6769,0,0,0,0,0,-5.6599,-5.671,-5.6718,-5.6909,-5.6936,-5.6914,-5.6973,-5.6932,-5.6982,-5.7002,-5.7017,-5.7069,-5.717,-5.7239,-5.7333,-5.7568,-5.7575,-5.7679,-5.7715,-5.7744,-5.7769,-5.7893,-5.7939,-5.7448,-5.7448,-5.7448,0,0,-5.6738,-5.676,-5.6835,-5.6948,-5.6981,-5.7097,-5.6933,-5.7064,-5.7149,-5.7022,-5.7195,-5.7208,-5.7261,-5.7471,-5.7564,-5.7492,-5.7906,-5.777,-5.7794,-5.7803,-5.792,-5.7966,-5.8008,-5.7463,-5.746,-5.7458,0,0,-5.7051,-5.708,-5.7241,-5.7277,-5.7329,-5.7312,-5.7351,-5.7383,-5.7386,-5.7558,-5.7464,-5.7566,-5.7743,-5.7784,-5.7829,-5.8156,-5.808,-5.8189,-5.8374,-5.8496,-5.8534,-5.8568,-5.8684,-5.8726,-5.8214,-5.8214,-5.8215,0,-5.7218,-5.7389,-5.7333,-5.747,-5.7522,-5.741,-5.7573,-5.7611,-5.7692,-5.7731,-5.7648,-5.7866,-5.7895,-5.8112,-5.8191,-5.8231,-5.8274,-5.8183,-5.8533,-5.8567,-5.8598,-5.8707,-5.8751,-5.8227,-5.8226,-5.8224,-5.8223,0,-5.7591,-5.7711,-5.7835,-5.7913,-5.7979,-5.8129,-5.8096,-5.817,-5.8124,-5.8116,-5.8292,-5.8322,-5.8419,-5.8467,-5.8425,-5.8679,-5.8632,-5.8543,-5.8395,-5.8658,-5.876,-5.8801,-5.8245,-5.8241,-5.8237,-5.8234,0,0,-5.8027,-5.807,-5.8117,-5.815,-5.8198,-5.829,-5.8435,-5.8527,-5.8591,-5.8651,-5.877,-5.8921,-5.8838,-5.8889,-5.8849,-5.8956,-5.9212,-5.8853,-5.8853,-5.8918,-5.9492,-5.9559,-5.9608,-5.9162,-5.9169,-5.9176,-5.9487,0,-5.8338,-5.8584,-5.8538,-5.8779,-5.8888,-5.8783,-5.8908,-5.8952,-5.8948,-5.9041,-5.9037,-5.9145,-5.9028,-5.9057,-5.9158,-5.9159,-5.9326,-5.9136,-5.9272,-5.9278,-5.9261,-5.9661,-5.9732,-6.0025,-5.9527,-5.9533,-5.9538,0,-5.8734,-5.8805,-5.9057,-5.9085,-5.9129,-5.9243,-5.9323,-5.9413,-5.946,-5.945,-5.9506,-5.9446,-5.9589,-5.944,-5.9636,-5.9508,-5.9561,-5.957,-5.958,-5.959,-5.9424,-5.9682,-6.0117,-6.0161,-5.9601,-5.9596,-5.9591,0,-5.9025,-5.9184,-5.9354,-5.9386,-5.9425,-5.9506,-5.9526,-5.9564,-5.9623,-5.9694,-5.9731,-5.9819,-5.9867,-5.9936,-5.9901,-5.9796,-6.0105,-5.9952,-6.01,-6.0101,-6.017,-6.0166,-6.0619,-6.0206,-6.0205,-6.0204,-6.0203,0,-5.9376,-5.9534,-5.9485,-5.959,-5.9764,-5.9708,-5.9882,-5.9889,-5.9924,-6.0029,-5.9944,-6.0044,-5.9992,-6.0089,-6.0063,-6.0229,-6.0252,-6.0248,-6.0239,-6.0255,-6.0256,-6.0289,-6.0267,-6.0216,-6.0213,-6.0211,-6.0209,0,-5.9731,-5.9704,-5.9883,-5.9903,-5.9912,-6.0039,-6.0057,-6.0155,-6.0144,-6.0278,-6.0306,-6.029,-6.0399,-6.0371,-6.0491,-6.0473,-6.0683,-6.0649,-6.0667,-6.0658,-6.0807,-6.0793,-6.1296,-6.1359,-6.0907,-6.0911,-6.0915,0,-5.9956,-6.0075,-6.0107,-6.017,-6.0196,-6.0299,-6.0357,-6.0308,-6.0372,-6.0433,-6.0524,-6.0625,-6.0703,-6.0883,-6.0883,-6.0974,-6.0941,-6.1111,-6.0954,-6.0966,-6.0942,-6.0935,-6.0946,-6.1142,-6.1147,-6.1152,-6.1155,0,-6.0359,-6.034,-6.0426,-6.0509,-6.058,-6.0643,-6.0698,-6.0755,-6.0709,-6.0786,-6.0895,-6.0956,-6.1076,-6.1178,-6.1261,-6.1282,-6.1212,-6.1204,-6.1243,-6.126,-6.1265,-6.1263,-6.0751,-6.1193,-6.1189,-6.1186,-6.1184,-6.1183,-6.0655,-6.0755,-6.0792,-6.0891,-6.0927,-6.098,-6.1072,-6.1072,-6.1162,-6.1255,-6.122,-6.1346,-6.1388,-6.1492,-6.1524,-6.1621,-6.1557,-6.1614,-6.1628,-6.1642,-6.166,-6.125,-6.1637,-6.1635,-6.1634,-6.1634,-6.1633,0,-6.1052,-6.107,-6.1162,-6.124,-6.1318,-6.1243,-6.13,-6.137,-6.1481,-6.1526,-6.1604,-6.1729,-6.1827,-6.1834,-6.1925,-6.2002,-6.1972,-6.2028,-6.2021,-6.2027,-6.1713,-6.167,-6.2051,-6.2051,-6.2051,-6.205,-6.205,-6.205,-6.1268,-6.1431,-6.1417,-6.1597,-6.1614,-6.1735,-6.1774,-6.1822,-6.1857,-6.2,-6.208,-6.2083,-6.2113,-6.2206,-6.2292,-6.2292,-6.2329,-6.2397,-6.2385,-6.2091,-6.205,-6.201,-6.1969,-6.2406,-6.2407,-6.269,-6.2693,-6.2695]},{"header":{"parameterUnit":"m.s-1","parameterCategory":1,"la1":30.2991,"la2":30.254,"lo1":-89.0895,"lo2":-89.0444,"dx":0.0017,"dy":0.0017,"nx":28,"ny":28,"refTime":"2022-12-18T15:00:00:Z","depth":0,"parameterNumber":3,"parameterNumberName":"V-component_of_WINDS"},"data":[0,0,0,0,0,0,0,0,0,0,0,0,0,0,0,0,0,0,0,0,0,0,0,0,0,0,0,0,0,0,0,0,0,0,0,0,0,0,0,0,0,0,0,0,0,0,0,0,0,0,0,0,0,0,0,0,0,0,-1.7179,-1.7179,0,-1.7171,-1.7171,-1.7171,-1.7182,-1.7182,-1.7182,-1.7183,-1.7174,-1.7174,-1.7173,0,0,0,0,0,0,0,0,0,0,0,0,0,-1.7201,-1.7201,-1.7179,-1.7179,-1.7179,-1.7171,-1.7171,-1.7171,-1.7182,-1.7182,-1.7183,-1.7183,-1.7175,-1.7174,-1.7173,0,0,0,0,0,0,0,0,0,0,0,0,0,-1.7192,-1.7201,-1.7179,-1.7183,-1.7184,-1.7171,-1.7171,-1.7171,-1.7182,-1.7182,-1.7183,-1.7183,-1.7175,-1.7174,-1.7173,-1.7156,0,0,-1.717,-1.717,0,0,0,0,0,0,0,0,-1.7193,-1.7192,-1.7183,-1.7183,-1.7183,-1.7178,-1.7176,-1.7166,-1.7181,-1.7182,-1.7183,-1.7184,-1.7175,-1.7174,-1.7171,-1.7156,-1.7155,-1.717,-1.717,-1.7169,-1.7169,0,0,0,0,0,0,0,-1.7194,-1.7192,-1.7176,-1.7183,-1.7183,-1.7185,-1.7184,-1.7174,-1.7175,-1.7182,-1.7183,-1.7182,-1.7175,-1.7172,-1.7171,-1.7155,-1.717,-1.717,-1.7169,-1.7169,-1.7122,-1.7121,0,0,0,0,0,0,-1.7194,-1.7192,-1.7176,-1.7176,-1.719,-1.7184,-1.7183,-1.7179,-1.7176,-1.7176,-1.7181,-1.7182,-1.7173,-1.7172,-1.7171,-1.7149,-1.7169,-1.7169,-1.7168,-1.7123,-1.7122,-1.7121,0,0,0,0,0,0,-1.7194,-1.7192,-1.7176,-1.7184,-1.7182,-1.7183,-1.7178,-1.7179,-1.7176,-1.7175,-1.7175,-1.7178,-1.7174,-1.7172,-1.7159,-1.7149,-1.7168,-1.7167,-1.7123,-1.7122,-1.7121,-1.7105,0,0,0,0,0,0,-1.7195,-1.7192,-1.7187,-1.7184,-1.7182,-1.7165,-1.7178,-1.7178,-1.7174,-1.7175,-1.7172,-1.7172,-1.7174,-1.716,-1.7158,-1.7148,-1.7167,-1.7124,-1.7123,-1.7122,-1.7107,-1.7104,-1.7101,0,0,0,0,0,-1.7196,-1.7183,-1.7186,-1.7184,-1.7175,-1.7165,-1.7163,-1.7166,-1.7173,-1.7167,-1.7166,-1.7172,-1.715,-1.7159,-1.7157,-1.7146,-1.7125,-1.7123,-1.7122,-1.7108,-1.7104,-1.7101,0,0,0,0,0,0,-1.7185,-1.7183,-1.7186,-1.7173,-1.7169,-1.7166,-1.7159,-1.7163,-1.7157,-1.7158,-1.7162,-1.7161,-1.7146,-1.7145,-1.7154,-1.7128,-1.7139,-1.7137,-1.7129,-1.7126,-1.7123,-1.7123,-1.7166,0,0,0,0,0,-1.7181,-1.7173,-1.7172,-1.716,-1.7157,-1.7158,-1.7154,-1.7156,-1.7152,-1.7151,-1.7149,-1.7145,-1.7136,-1.7131,-1.7124,-1.7107,-1.7105,-1.7098,-1.7095,-1.7093,-1.7091,-1.7079,-1.7075,-1.7116,-1.7116,-1.7116,0,0,-1.7173,-1.717,-1.7166,-1.7157,-1.7154,-1.7145,-1.7157,-1.7147,-1.714,-1.7149,-1.7136,-1.7134,-1.713,-1.7114,-1.7107,-1.7112,-1.7079,-1.7091,-1.7089,-1.7088,-1.7077,-1.7073,-1.707,-1.7115,-1.7115,-1.7115,0,0,-1.7152,-1.7151,-1.7139,-1.7136,-1.7131,-1.7131,-1.7128,-1.7125,-1.7124,-1.7111,-1.7117,-1.7108,-1.7095,-1.709,-1.7086,-1.7062,-1.7066,-1.7059,-1.7045,-1.7033,-1.703,-1.7027,-1.7017,-1.7013,-1.7057,-1.7057,-1.7057,0,-1.7143,-1.713,-1.7133,-1.7122,-1.7118,-1.7125,-1.7112,-1.7109,-1.7102,-1.7098,-1.7104,-1.7086,-1.7083,-1.7065,-1.7059,-1.7056,-1.7051,-1.706,-1.7031,-1.7028,-1.7025,-1.7015,-1.7011,-1.7056,-1.7056,-1.7057,-1.7057,0,-1.7117,-1.7108,-1.7099,-1.7091,-1.7086,-1.7074,-1.7075,-1.7068,-1.7071,-1.707,-1.7055,-1.7052,-1.7043,-1.7039,-1.7042,-1.702,-1.7023,-1.703,-1.7041,-1.702,-1.701,-1.7007,-1.7055,-1.7055,-1.7056,-1.7056,0,0,-1.7091,-1.7083,-1.708,-1.7075,-1.707,-1.7062,-1.705,-1.7041,-1.7034,-1.7029,-1.7018,-1.7005,-1.701,-1.7006,-1.7008,-1.6998,-1.6976,-1.7006,-1.7005,-1.6998,-1.6949,-1.6943,-1.6939,-1.6979,-1.6978,-1.6978,-1.6949,0,-1.7069,-1.7049,-1.705,-1.703,-1.702,-1.7026,-1.7015,-1.7009,-1.7008,-1.6999,-1.6997,-1.6987,-1.6996,-1.6993,-1.6983,-1.6981,-1.6966,-1.6983,-1.6967,-1.6967,-1.6967,-1.6934,-1.6929,-1.6902,-1.6946,-1.6945,-1.6945,0,-1.7042,-1.7034,-1.7013,-1.7006,-1.7002,-1.6993,-1.6983,-1.6974,-1.6968,-1.6967,-1.696,-1.6963,-1.695,-1.6961,-1.6941,-1.6953,-1.6946,-1.6944,-1.6943,-1.6941,-1.6954,-1.693,-1.6894,-1.6889,-1.6939,-1.694,-1.694,0,-1.7023,-1.7007,-1.6992,-1.6988,-1.698,-1.6973,-1.6969,-1.6963,-1.6956,-1.6948,-1.6943,-1.6933,-1.6927,-1.6919,-1.6919,-1.6928,-1.6898,-1.691,-1.6895,-1.6895,-1.6888,-1.6889,-1.6849,-1.6887,-1.6887,-1.6887,-1.6887,0,-1.6998,-1.6985,-1.6983,-1.6973,-1.6957,-1.6958,-1.6942,-1.6939,-1.6933,-1.6922,-1.6927,-1.6916,-1.6917,-1.6905,-1.6905,-1.6887,-1.6885,-1.6883,-1.6883,-1.6882,-1.6882,-1.6877,-1.6878,-1.6886,-1.6886,-1.6886,-1.6886,0,-1.6974,-1.6973,-1.6956,-1.6949,-1.6947,-1.6935,-1.6929,-1.6919,-1.6917,-1.6903,-1.69,-1.6896,-1.6883,-1.6882,-1.6867,-1.6867,-1.6844,-1.6847,-1.6847,-1.6846,-1.6831,-1.6832,-1.6786,-1.6779,-1.6823,-1.6822,-1.6822,0,-1.6958,-1.6947,-1.6939,-1.6931,-1.6927,-1.6915,-1.6908,-1.6908,-1.69,-1.689,-1.6881,-1.6868,-1.6858,-1.6836,-1.6832,-1.682,-1.6821,-1.6806,-1.6819,-1.6818,-1.6819,-1.6819,-1.6816,-1.6803,-1.6803,-1.6802,-1.6802,0,-1.6929,-1.6928,-1.6917,-1.6906,-1.6897,-1.6888,-1.688,-1.6873,-1.6872,-1.6862,-1.6849,-1.684,-1.6824,-1.681,-1.6798,-1.6793,-1.6796,-1.6798,-1.6793,-1.6791,-1.6791,-1.6789,-1.6838,-1.6799,-1.6799,-1.6799,-1.6799,-1.6799,-1.6907,-1.6897,-1.6888,-1.6876,-1.6869,-1.686,-1.685,-1.6846,-1.6834,-1.682,-1.6821,-1.6805,-1.6796,-1.678,-1.6774,-1.676,-1.6766,-1.676,-1.6758,-1.6756,-1.6754,-1.6794,-1.6759,-1.6759,-1.6759,-1.6759,-1.6759,0,-1.6876,-1.6871,-1.6859,-1.6846,-1.6836,-1.6839,-1.6829,-1.682,-1.6806,-1.6797,-1.6786,-1.6769,-1.6755,-1.6749,-1.6735,-1.6725,-1.6726,-1.6722,-1.6722,-1.672,-1.6751,-1.6755,-1.6721,-1.6721,-1.6721,-1.6721,-1.6721,-1.6721,-1.6859,-1.6841,-1.6839,-1.6816,-1.6811,-1.6795,-1.6788,-1.678,-1.6772,-1.6753,-1.6741,-1.6737,-1.6728,-1.6713,-1.67,-1.6699,-1.6692,-1.6687,-1.6685,-1.6714,-1.6718,-1.6722,-1.6726,-1.6686,-1.6686,-1.6655,-1.6655,-1.6655]}]]